Вернуться в каталог

METEOR 1-11 DEB

LostPO
NORAD 45503·DEBRIS·🇷🇺 Russia

Запущен Mar 30, 1972 с Plesetsk Cosmodrome

Loading…

Ближайшие Пролёты (ближайшие 24 часа)

TLE

УстаревшееSource: Space-Track

Эпоха: Mar 31, 2023, 07:02 UTC

1 45503U 72022F   23090.29364940  .00012576  00000-0  52908-2 0  9998
2 45503  81.2172 302.4850 0037262 283.2633  76.4392 14.25333441348308

Отслеживайте METEOR 1-11 DEB в реальном времени с AllMySat

Download on the App Store